Volver al catálogo

SL-8 R/B

ActivoPO
NORAD 15360·ROCKET BODY·🇷🇺 Russia

Lanzado Oct 11, 1984 desde Plesetsk Cosmodrome

Loading…

Próximos Pases (próximas 24 horas)

TLE

ActualizadoSource: Space-Track

Época: Sep 14, 2026, 10:05 UTC

1 15360U 84109B   26257.42040784  .00000123  00000-0  10918-3 0  9996
2 15360  82.9367  59.0902 0040503 329.0287  30.8482 13.77070684105925

Sigue SL-8 R/B en tiempo real con AllMySat

Download on the App Store